Theta_e
354 355 355 354 353 354 354 355 350 346 345 334 337 341 343 348 347 350 350 351 350 349 349 347 346 346 346 344 344 346 347 346 346 346 345 349 351 349 350 349 346 345 346 346 344 343 343 342 342 344 343 343 344 342 342 342 343 344 344 346 345 344 344 343 344 344 344 344 342 342 342 340 338 337 336 335 337 342 345 345 344 343 343 342 342 339 337 335 336 340 343 345 344 344 344 343 344
354 355 354 353 354 355 354 356 346 336 336 331 338 343 345 349 346 349 350 350 347 348 348 346 346 346 345 345 345 345 346 347 348 348 349 350 350 351 349 347 346 345 345 346 344 344 345 344 343 344 342 342 343 343 342 342 344 344 345 345 344 343 343 343 344 345 344 344 343 343 344 342 339 336 335 335 336 339 341 342 342 341 339 338 337 336 336 335 334 337 342 344 345 344 344 344 344
355 355 354 354 355 355 354 354 343 331 330 330 337 345 348 348 347 348 348 348 348 348 347 346 347 346 346 345 346 345 346 348 349 349 349 349 351 351 348 346 345 344 346 347 347 346 346 345 344 343 341 343 344 344 344 344 345 344 345 345 344 343 343 344 344 344 344 345 345 344 344 342 339 336 335 334 332 332 334 335 335 333 333 333 334 336 338 338 337 339 343 344 344 344 344 344 344
354 355 355 355 355 355 355 351 342 332 328 330 335 345 350 347 347 347 347 347 348 347 346 347 347 348 348 345 345 346 346 348 349 348 349 350 350 349 348 347 345 347 349 349 346 346 346 345 344 341 341 344 344 345 345 344 345 344 344 344 344 343 343 345 344 345 345 344 344 344 343 340 338 337 337 334 331 329 329 327 327 328 328 328 330 332 334 337 340 342 343 343 344 344 343 343 344
353 355 354 355 357 354 355 348 341 336 332 334 337 346 350 346 347 347 347 347 348 347 346 346 345 347 348 347 348 348 348 349 349 347 349 350 349 348 349 348 347 350 350 347 345 346 345 345 345 342 342 344 344 345 343 343 343 343 344 343 343 343 344 345 345 345 344 344 344 343 341 339 340 340 340 338 333 330 328 327 327 327 327 326 325 326 328 332 337 340 342 342 342 341 339 341 344
353 355 354 355 357 355 355 345 337 337 341 345 342 347 349 347 347 346 347 348 348 348 346 346 345 346 348 350 350 350 350 350 349 348 350 350 348 348 348 349 350 351 347 346 349 347 343 343 345 344 343 343 343 344 343 342 341 342 344 343 343 344 344 345 345 345 344 345 344 344 342 341 343 343 342 340 335 331 330 330 330 331 333 333 330 326 325 327 331 335 337 338 337 337 339 342 342
353 356 355 355 356 355 353 341 337 338 346 353 347 348 348 348 348 346 347 346 348 347 346 346 346 346 347 349 350 350 349 349 349 348 349 348 348 347 348 349 351 350 346 348 352 349 343 343 344 343 343 342 342 344 344 342 339 341 344 344 343 344 344 345 344 343 344 344 343 345 344 343 344 344 344 342 339 334 333 335 337 339 341 342 339 331 324 324 326 328 331 333 335 339 343 342 339
352 355 356 355 355 354 350 341 344 343 346 353 351 351 350 350 348 347 347 346 346 346 346 346 346 346 345 349 350 351 350 350 350 349 349 348 348 348 349 350 351 349 348 351 352 348 344 343 343 342 342 342 342 343 344 343 340 340 343 343 343 343 344 344 344 344 344 344 344 344 343 343 344 345 344 344 342 337 337 339 343 345 346 345 341 333 325 323 324 326 330 333 338 343 344 341 340
352 354 355 355 353 349 348 345 346 348 349 351 351 353 353 352 349 348 346 344 344 345 346 345 346 346 347 350 351 351 351 351 349 349 348 348 348 349 350 351 350 349 350 350 349 346 344 343 342 341 341 342 341 342 344 344 343 341 343 343 343 344 344 344 343 343 343 343 343 343 343 344 345 345 344 344 343 339 338 339 343 345 345 343 339 334 327 324 328 332 335 337 340 344 345 344 343
353 355 354 354 350 343 343 344 344 349 352 352 352 353 353 351 349 348 346 344 344 344 345 345 345 346 349 349 351 351 351 350 349 349 348 348 348 349 351 351 350 348 349 351 349 347 345 343 342 341 341 341 341 342 343 344 344 342 342 343 343 343 343 343 343 342 342 342 342 343 343 344 345 345 345 343 342 341 339 339 340 341 340 338 338 334 328 329 335 338 339 339 341 345 346 344 342
354 354 354 351 344 339 340 342 344 349 351 350 353 354 353 352 350 348 347 344 344 345 345 345 346 346 349 348 350 351 350 349 348 348 349 348 348 349 350 350 348 347 349 351 351 348 344 344 343 341 341 341 342 342 342 343 344 342 341 343 343 343 342 342 342 342 342 342 342 342 342 343 344 345 345 341 340 340 339 338 337 337 336 334 334 333 331 335 339 340 339 339 341 344 343 341 340
353 352 352 348 342 341 343 343 345 350 351 350 352 354 354 351 349 348 346 345 345 345 345 346 346 345 347 348 350 350 350 349 348 348 348 347 348 350 349 349 348 347 349 351 352 348 344 344 343 341 340 341 341 340 339 341 343 342 341 343 343 343 342 341 341 341 341 341 342 342 341 342 343 344 344 339 337 338 337 336 336 334 332 331 332 334 337 339 340 340 339 340 342 342 340 339 340
352 352 350 348 346 347 348 347 349 348 349 351 353 354 352 350 350 348 347 346 346 345 343 345 344 346 346 348 349 349 350 349 348 347 347 348 349 349 349 348 348 348 349 350 351 349 346 345 344 343 340 341 341 340 339 338 341 342 342 343 343 342 341 341 341 341 341 341 341 342 341 341 343 344 341 336 334 334 334 334 334 332 331 330 331 335 340 341 341 341 341 342 341 340 339 339 340
352 351 351 350 350 351 349 348 349 345 346 352 354 354 352 353 352 349 348 347 347 345 343 343 344 345 346 348 349 348 349 348 347 347 348 348 348 349 349 349 349 348 348 349 350 349 347 346 346 344 341 343 342 342 341 338 340 342 343 342 342 342 341 341 340 341 341 340 341 342 340 341 342 341 338 334 331 331 333 333 332 332 333 334 334 336 340 342 342 342 342 342 340 339 339 339 338
353 353 353 353 349 349 351 348 347 343 345 352 354 354 352 354 352 349 351 349 348 345 343 343 344 345 345 346 347 348 349 348 347 347 348 348 348 349 349 349 349 348 347 347 347 346 346 346 348 346 344 346 345 346 342 339 342 342 343 341 340 342 341 340 339 339 341 341 340 339 340 341 340 338 338 334 331 332 332 333 334 335 338 339 339 339 341 342 343 342 341 341 339 339 338 338 337
351 351 354 353 348 346 350 350 348 345 347 351 353 354 353 353 353 352 352 350 347 346 345 344 345 345 343 345 347 348 349 348 347 347 348 348 348 349 348 349 348 348 347 345 344 344 344 345 349 347 346 346 348 349 343 338 342 343 343 343 341 341 340 340 339 338 339 340 339 340 341 340 338 338 338 334 332 333 332 334 338 339 341 342 342 342 343 343 342 341 341 340 339 339 338 336 336
348 350 355 354 352 347 350 350 348 346 349 352 353 354 352 352 353 352 351 350 347 346 347 346 346 346 344 347 349 349 349 349 348 348 348 348 348 348 348 348 348 348 346 343 342 344 343 344 347 347 346 347 349 351 347 341 339 341 342 343 342 340 340 340 340 340 340 339 340 342 339 337 340 342 339 336 333 332 333 337 341 341 343 343 343 344 343 342 341 340 340 340 340 339 337 337 337
350 353 354 352 352 349 352 353 350 350 351 352 353 355 354 352 353 351 351 351 349 347 348 348 347 347 348 349 350 349 349 349 348 348 348 347 347 348 348 348 348 347 346 344 343 342 343 344 344 345 346 346 348 350 351 346 340 339 339 340 342 341 342 341 340 341 340 339 340 339 338 341 346 345 339 338 335 333 335 339 342 343 344 344 343 344 343 341 340 340 340 340 340 338 339 344 341
352 354 353 349 349 348 352 354 353 354 354 354 354 354 354 355 354 352 353 352 349 348 348 349 349 348 349 350 349 349 349 349 349 348 347 347 347 347 348 348 347 347 347 346 344 342 342 343 342 344 346 345 347 349 349 349 346 343 340 338 338 340 340 339 340 342 341 340 339 341 344 346 345 341 335 336 335 334 338 342 343 343 343 344 343 342 341 340 339 339 340 339 339 340 344 348 345
349 353 354 350 347 347 350 352 353 355 354 355 353 352 355 356 355 353 355 351 348 347 347 349 350 350 350 349 349 349 349 349 349 348 347 347 347 347 347 348 348 348 347 347 346 343 341 342 341 343 345 343 346 348 347 348 348 348 347 345 343 343 341 341 344 347 347 345 344 348 348 343 338 336 332 334 336 336 339 342 343 344 344 343 342 342 341 339 340 340 339 340 343 345 346 347 346
348 349 350 348 346 347 349 350 351 354 354 355 353 352 354 355 355 356 354 350 347 348 347 347 348 349 349 348 349 349 349 349 348 348 347 347 347 346 347 348 348 349 348 348 347 342 340 341 341 342 345 344 345 346 346 347 347 349 352 351 349 349 348 348 348 347 347 346 347 350 347 340 337 338 334 336 338 337 341 344 345 345 345 344 342 344 344 342 344 344 343 344 346 346 347 345 345
346 345 344 345 345 347 350 352 353 354 354 355 352 353 356 357 356 356 354 350 350 349 348 346 348 349 349 348 348 349 349 349 349 348 347 347 347 347 348 348 349 349 348 348 347 344 341 341 342 343 344 344 344 345 346 345 344 349 353 351 349 348 348 349 346 344 345 345 346 347 344 339 338 338 336 336 336 338 343 345 347 348 348 347 345 347 347 346 347 346 345 346 346 345 345 345 346
344 345 344 346 347 347 351 353 353 355 354 354 355 355 357 357 357 356 354 353 352 349 348 347 348 348 348 348 348 348 349 349 350 349 349 348 348 348 348 348 350 350 349 349 348 346 344 343 343 344 345 343 343 344 344 342 341 347 351 349 349 348 346 346 346 342 343 345 345 345 343 340 340 340 335 333 336 342 345 346 348 349 350 349 347 349 348 348 348 346 346 346 345 345 344 345 345
340 343 345 348 349 349 351 353 354 355 356 357 357 355 356 358 358 357 355 354 353 349 348 348 349 349 348 349 348 348 348 349 350 349 350 349 349 349 349 349 350 350 350 349 349 347 345 345 342 342 344 341 342 342 342 342 341 344 346 346 349 348 344 346 346 343 342 344 345 344 341 339 342 342 337 335 338 343 345 347 350 350 350 350 348 349 348 348 348 346 346 346 346 346 345 345 344
338 340 343 347 348 350 352 353 355 355 356 357 356 355 357 358 358 358 356 352 351 349 348 349 350 349 348 348 348 348 348 349 350 350 350 349 349 349 350 350 350 350 350 348 349 348 347 347 342 340 342 340 341 342 342 344 342 342 343 345 348 345 342 345 344 343 342 341 343 343 340 338 342 343 341 339 340 341 345 348 350 351 350 350 349 349 349 349 347 346 345 345 346 345 345 344 344
340 340 342 347 349 353 355 355 355 354 356 357 357 357 357 357 357 357 356 352 349 349 349 350 350 349 349 348 348 348 349 349 350 350 351 350 350 351 351 351 350 349 349 349 348 348 348 346 343 342 341 340 341 342 343 344 343 342 342 345 347 344 343 344 341 343 343 341 341 341 339 338 340 345 341 335 336 339 343 348 350 350 350 350 350 349 349 348 347 346 345 346 345 345 344 343 344
341 344 344 350 355 356 356 356 356 355 357 357 356 356 357 357 355 354 355 351 348 350 349 349 350 350 349 349 349 349 349 349 350 350 350 350 350 352 352 351 350 350 349 349 349 348 348 345 345 344 340 339 341 343 343 343 342 341 342 343 344 344 344 343 341 343 343 341 341 341 340 337 339 344 338 331 337 341 343 348 350 351 351 350 350 349 349 349 348 347 346 346 346 346 345 343 345
345 348 347 352 356 357 356 356 358 357 357 357 357 355 357 357 353 353 354 350 348 350 349 349 350 351 350 349 349 349 349 349 349 349 349 349 351 351 352 351 350 350 349 350 349 348 348 347 347 346 342 339 341 344 344 342 342 341 341 342 344 343 343 343 342 341 340 340 340 341 341 337 340 340 332 331 337 343 346 349 350 351 351 351 350 350 349 348 348 348 347 347 347 347 346 346 346
349 349 349 353 354 357 356 357 357 356 358 358 356 352 352 357 355 355 354 349 350 351 350 350 347 348 351 351 350 350 349 349 349 349 348 349 350 350 351 350 350 350 350 350 349 348 348 349 348 346 345 341 340 344 345 344 345 343 341 343 343 342 342 343 343 342 339 339 341 343 342 338 341 338 329 331 336 342 347 349 350 351 351 351 350 349 348 348 348 349 347 347 347 347 347 347 346
349 347 348 351 352 355 358 359 358 357 358 358 355 345 345 355 356 356 355 350 350 351 351 350 347 347 350 350 351 350 350 349 349 349 349 350 350 350 350 351 350 351 351 351 351 350 349 349 348 347 346 343 342 345 346 346 347 346 343 342 342 341 343 343 344 344 340 341 341 343 343 340 342 335 330 334 336 342 348 348 350 352 350 350 350 349 348 349 349 349 348 347 347 346 347 346 346
347 346 344 343 346 349 355 358 357 357 358 359 355 342 342 352 355 355 356 353 351 351 350 350 349 346 345 346 349 350 350 349 349 348 350 350 350 350 350 351 351 350 350 351 352 351 350 350 348 347 346 344 344 345 345 346 348 348 346 344 343 342 343 343 344 344 340 341 339 340 342 342 342 335 331 336 335 341 349 349 351 352 349 349 352 349 348 350 349 349 349 347 347 347 347 347 346
344 345 342 336 340 346 355 358 356 356 358 358 354 344 345 353 356 356 357 355 352 351 350 350 350 345 341 344 348 349 348 349 348 347 348 350 350 351 350 351 352 351 350 351 352 351 351 349 347 348 347 344 344 346 346 346 347 348 348 346 344 342 342 342 343 342 340 339 339 341 342 342 343 334 332 337 335 341 349 350 352 349 346 349 352 348 348 351 349 349 349 348 348 348 346 347 346
337 341 335 330 332 338 349 357 358 356 357 357 354 348 349 354 356 357 357 356 354 352 352 349 349 348 345 346 347 348 349 348 348 348 348 349 350 350 350 352 352 350 349 351 352 351 351 349 346 350 350 346 345 347 347 347 346 347 348 346 345 343 344 345 343 341 340 340 340 343 343 343 342 334 333 336 335 343 349 351 352 349 348 350 351 350 350 351 349 349 350 349 348 348 348 346 346
330 332 329 330 331 330 338 351 358 357 355 356 354 351 350 351 354 358 357 357 355 354 353 350 350 350 347 347 347 348 349 349 350 349 349 349 350 350 351 352 351 349 347 350 352 351 351 351 348 349 351 348 347 347 348 347 347 347 347 348 347 344 345 348 347 343 341 342 343 343 343 343 341 335 335 336 337 344 348 351 351 350 349 350 350 351 352 351 351 350 350 350 347 347 349 347 347
324 326 326 327 330 330 331 340 351 353 352 353 353 351 351 351 352 356 357 356 355 355 354 352 350 350 348 346 346 346 348 349 349 348 346 347 349 350 350 351 351 351 347 349 352 351 350 352 350 348 349 350 349 349 347 347 348 348 347 348 348 344 344 347 347 344 343 344 345 343 342 343 340 337 336 336 338 341 347 350 350 349 350 351 351 351 351 352 353 352 351 349 347 349 350 349 349
324 324 325 324 325 329 331 336 344 348 349 351 351 351 352 352 352 353 356 356 355 355 354 353 350 350 350 348 345 346 348 348 348 347 346 346 348 349 350 350 351 351 349 349 351 349 348 350 350 347 347 350 351 350 349 348 348 348 347 348 348 346 344 344 345 345 345 346 345 342 341 342 340 337 336 337 337 340 347 351 349 348 351 353 353 353 353 354 352 352 352 346 345 350 351 349 350
325 324 325 324 324 326 334 344 348 349 350 349 349 349 350 352 353 353 355 355 355 355 355 354 352 350 351 350 348 348 348 347 347 346 347 347 348 348 349 349 350 352 349 349 350 350 347 347 348 347 347 349 350 350 349 348 348 348 347 348 348 347 345 343 345 345 345 346 344 341 341 340 339 337 335 337 339 340 345 349 348 347 350 352 352 352 352 350 348 350 353 349 347 350 349 349 350
325 324 323 323 325 331 341 350 352 353 352 349 350 350 351 354 353 355 355 353 355 356 355 355 354 352 350 350 350 350 349 347 346 347 347 347 348 348 349 349 350 351 350 349 350 351 348 347 349 349 347 348 349 351 349 347 346 346 347 348 348 348 346 344 346 346 346 347 343 339 340 339 338 337 335 338 341 342 345 349 348 346 348 349 348 348 348 345 345 349 352 352 351 351 350 349 350
325 325 323 322 326 335 346 354 355 354 352 349 350 348 350 355 353 354 356 355 356 358 357 356 355 353 352 350 351 352 350 347 347 348 347 348 348 348 350 351 350 351 350 351 352 351 349 347 349 349 347 348 349 350 349 346 345 345 346 348 347 348 348 346 348 347 346 347 343 339 340 339 337 335 335 338 342 344 346 349 351 349 347 346 346 347 347 346 348 351 351 352 352 351 349 350 351
325 325 322 322 325 328 335 348 355 354 352 350 349 346 348 354 353 352 354 355 356 356 356 356 355 355 354 352 352 353 350 348 349 349 348 347 348 350 350 351 353 350 347 351 354 354 352 348 347 348 347 348 348 349 349 347 346 345 346 347 346 347 348 347 348 346 343 345 346 341 339 339 337 334 335 339 343 344 345 347 350 352 349 345 346 346 346 349 353 352 352 352 352 350 348 349 351
324 326 322 322 325 323 329 344 354 355 351 352 348 337 340 351 353 353 353 353 355 354 354 355 355 355 355 353 353 353 351 350 350 350 346 344 346 350 351 352 353 351 347 349 353 354 354 350 347 348 347 348 349 349 347 347 348 347 345 344 344 345 346 345 345 345 343 344 346 344 340 338 337 336 335 339 343 342 343 345 346 348 350 346 348 350 350 353 353 352 351 351 351 351 350 349 350
321 324 325 324 325 325 333 345 346 338 335 348 345 327 330 346 350 351 352 352 353 354 354 354 354 355 355 354 353 352 352 351 352 350 346 343 345 349 352 353 353 352 348 348 351 353 354 352 348 348 347 348 351 349 346 346 347 346 345 346 346 345 345 344 345 346 346 345 346 346 343 340 338 338 337 337 341 342 343 345 343 346 351 350 349 351 351 352 351 351 352 351 353 353 350 349 351
319 322 326 325 325 326 332 341 335 322 325 345 346 326 325 339 347 349 351 352 353 352 353 354 354 354 354 354 354 353 353 353 352 352 349 345 345 349 351 352 353 353 348 346 349 352 354 353 350 348 347 348 350 348 346 346 346 347 347 347 347 347 346 346 346 347 348 346 346 347 346 342 339 339 339 336 337 343 344 343 342 344 350 353 351 349 350 352 351 352 353 351 352 350 346 350 352
319 323 324 323 325 325 329 333 328 323 328 340 343 332 323 329 343 350 350 352 352 351 352 354 355 354 353 353 354 354 353 353 352 352 351 346 345 348 349 351 353 352 348 347 349 352 353 353 349 347 347 346 346 346 346 346 345 347 347 346 346 346 348 347 345 347 349 347 346 348 347 345 339 336 341 337 335 343 343 340 341 343 346 349 349 348 352 353 352 353 351 346 346 345 347 352 353
324 327 326 326 327 327 329 328 325 327 328 325 331 333 321 322 340 350 350 350 350 351 350 352 355 355 354 353 353 353 352 352 352 353 352 347 347 350 349 350 352 352 350 349 351 352 353 351 347 347 347 346 345 344 345 345 345 347 346 345 346 346 347 348 344 344 347 346 345 346 346 347 342 333 335 337 336 340 339 336 341 343 343 344 346 351 354 353 353 351 347 345 348 349 352 353 352
329 330 328 328 329 328 329 327 325 326 323 319 323 327 319 321 334 341 346 348 347 350 349 351 355 355 355 353 353 353 352 352 352 352 351 348 349 351 350 350 351 351 350 350 352 352 353 352 347 346 348 346 345 343 344 344 344 346 346 344 345 344 344 346 345 343 342 341 342 343 342 344 344 338 335 335 335 337 336 337 343 343 342 344 347 350 352 352 351 349 348 351 350 349 352 354 353
329 329 327 327 327 328 328 327 326 322 319 320 323 325 320 320 328 336 343 346 346 349 349 350 354 355 355 353 351 352 351 352 351 352 351 348 349 351 350 350 350 350 351 350 352 352 353 354 350 347 347 347 345 342 343 344 342 343 344 343 344 342 341 343 345 343 340 337 340 343 341 340 342 344 342 339 336 336 336 338 343 346 346 346 347 347 349 352 353 352 352 353 349 348 352 354 354
327 327 326 323 323 325 323 324 324 319 318 321 324 326 321 318 326 337 345 348 346 348 349 349 351 353 354 353 351 352 351 351 351 351 350 349 349 350 350 350 350 351 351 350 352 351 352 352 349 347 348 348 348 344 342 342 341 341 340 341 343 343 341 342 342 340 338 337 340 344 345 343 342 345 346 345 342 341 342 339 340 345 345 345 346 348 351 352 352 352 352 353 353 353 352 352 352
325 325 322 318 317 319 318 319 320 317 318 323 325 326 321 323 334 343 347 348 347 349 350 348 350 352 353 352 351 351 350 351 351 351 351 350 349 349 350 351 350 351 352 351 352 351 352 352 347 346 347 348 349 348 345 343 341 340 339 340 343 345 344 342 341 341 341 340 342 345 346 344 343 343 344 345 345 345 344 339 337 340 342 342 344 345 347 348 348 350 352 352 353 353 353 352 352
323 321 318 316 316 317 317 317 317 317 318 322 327 326 321 327 341 347 347 348 348 351 350 348 350 350 351 352 350 349 350 350 351 351 351 351 350 350 350 351 351 351 351 352 352 352 352 353 349 346 346 347 349 350 348 346 342 339 339 339 341 344 344 342 342 344 345 343 344 345 345 344 343 343 343 344 345 345 345 343 338 337 339 339 340 341 343 345 344 346 349 350 352 354 353 352 352
323 324 322 318 317 317 317 317 317 318 319 322 328 326 321 327 340 347 347 348 350 351 350 349 350 350 350 349 350 350 350 350 350 351 351 351 351 351 350 351 351 349 348 350 352 352 353 354 351 347 345 346 347 349 349 347 342 337 339 339 340 342 343 343 345 346 348 347 345 345 345 346 344 344 344 345 344 342 344 346 343 341 341 340 341 342 344 348 344 342 345 345 347 352 353 351 352
324 326 322 319 320 320 319 318 319 319 318 322 325 325 329 336 343 347 346 347 349 349 350 350 349 349 348 347 348 348 349 350 350 350 351 351 351 352 352 352 352 349 346 348 350 351 353 353 353 349 348 347 347 347 348 346 341 337 338 338 340 341 341 343 345 344 345 347 347 347 346 345 345 345 345 346 344 340 341 345 346 345 344 341 342 342 345 350 347 343 344 343 344 352 355 352 352
324 323 321 322 326 324 320 319 322 320 318 321 322 322 332 339 341 345 345 346 347 346 348 349 348 348 347 345 346 346 347 349 349 349 350 351 351 352 352 352 353 350 347 347 347 350 353 354 353 351 350 350 350 348 346 346 343 340 338 338 340 342 341 342 345 343 343 346 346 347 346 345 345 346 346 345 344 343 342 345 348 350 348 345 345 345 346 347 345 344 346 344 346 353 355 353 352
323 321 322 327 328 326 323 320 321 320 318 321 321 320 325 328 333 344 347 345 346 345 347 348 347 347 346 345 346 346 348 348 349 350 349 349 350 351 351 352 353 352 350 348 347 348 349 351 353 352 352 353 352 350 349 348 346 342 340 339 340 343 345 345 347 346 347 348 346 345 347 347 346 347 346 346 345 346 345 346 348 350 351 349 348 349 350 348 344 345 349 348 349 351 351 351 352
326 324 326 326 323 322 323 320 319 319 318 320 320 320 321 321 329 340 344 343 345 344 345 345 346 346 345 346 346 347 348 348 348 349 349 349 348 348 350 350 352 352 352 351 350 348 346 347 351 353 352 353 353 353 352 351 349 346 343 342 342 343 346 347 348 348 348 349 348 347 347 348 348 348 348 347 347 348 349 349 348 349 350 350 349 349 351 349 346 349 353 352 353 352 349 348 350
327 327 327 326 324 322 322 321 320 319 319 319 318 320 321 323 330 338 339 341 344 343 343 343 344 346 346 346 347 346 347 348 348 349 348 348 347 347 348 348 350 351 351 352 352 351 348 348 350 352 352 352 353 353 353 352 352 351 348 345 344 344 345 346 348 348 348 348 349 349 348 349 348 349 349 349 349 349 351 352 351 350 351 352 352 351 352 352 351 352 354 353 354 355 352 349 351
325 323 323 324 325 324 323 323 321 318 318 318 318 318 321 327 335 338 338 341 342 342 343 343 344 346 346 347 347 347 347 347 347 347 347 347 346 346 347 347 348 349 350 351 352 352 351 350 350 351 352 352 352 352 353 352 352 352 351 348 346 345 345 347 348 348 348 348 348 349 348 349 348 349 349 349 350 351 352 352 351 351 351 352 353 353 353 354 354 354 353 352 353 353 351 351 353
326 324 323 324 324 322 321 321 322 320 318 318 318 317 320 330 338 339 338 340 342 343 342 343 344 347 347 347 347 347 347 347 346 346 346 345 345 345 346 347 347 347 348 350 351 351 352 351 351 351 351 351 352 352 352 352 352 352 352 350 348 347 348 348 348 349 349 349 349 349 349 348 349 349 349 349 350 351 351 352 352 351 351 352 353 352 352 354 354 354 354 352 353 352 351 352 353
Wind_Speed
5 3 1 1 1 1 2 3 2 3 2 4 6 5 6 6 6 7 8 5 5 6 4 9 11 7 3 4 6 7 7 6 4 2 4 8 15 17 15 17 19 20 19 17 16 15 14 14 14 14 13 12 11 12 12 12 11 11 11 12 13 14 15 14 15 15 14 14 14 14 13 13 13 13 14 14 14 14 12 12 11 11 10 10 9 9 9 11 12 12 13 13 14 14 14 14 15
3 2 1 1 1 2 1 3 1 3 3 6 6 5 6 5 6 8 8 5 6 7 9 12 10 6 4 5 6 6 10 11 8 9 11 15 18 14 15 18 19 20 19 18 16 15 14 14 14 14 13 12 11 11 12 11 11 12 11 12 13 15 15 14 14 14 14 14 14 13 13 13 13 13 13 14 14 13 12 11 11 10 9 9 9 10 11 12 12 12 12 13 13 13 13 13 14
2 1 0 2 2 2 3 4 2 3 3 6 6 5 4 5 8 8 8 6 9 10 12 12 8 6 4 7 5 5 8 9 10 14 16 17 16 14 17 19 19 19 17 17 15 14 14 14 14 13 12 11 11 11 11 11 11 11 12 13 13 15 15 14 13 13 13 13 13 13 13 12 13 13 13 14 13 13 12 11 11 10 10 10 10 11 11 12 12 12 12 13 13 12 13 13 13
2 1 0 2 2 2 3 3 1 1 4 5 6 5 4 7 8 7 7 7 9 11 12 10 7 5 4 7 6 6 9 8 10 14 16 13 13 17 19 18 18 17 16 16 16 14 14 14 14 12 11 10 10 10 11 11 10 10 12 13 13 14 15 14 13 13 13 13 13 13 13 13 13 13 13 13 12 12 12 12 11 11 10 10 10 10 11 12 12 12 12 12 11 12 12 12 12
2 0 1 1 3 2 2 2 0 1 4 5 5 6 5 7 7 7 7 8 8 9 10 7 6 6 7 8 5 6 8 8 10 12 15 13 15 20 19 18 17 16 16 17 16 15 14 14 14 12 11 10 10 10 11 11 11 11 11 12 13 13 14 14 13 12 12 13 13 13 13 14 14 14 13 13 12 12 12 12 11 11 11 11 10 9 10 11 11 10 11 10 10 10 11 11 11
1 1 1 1 3 2 3 2 2 5 6 4 6 7 6 7 7 8 9 9 7 8 8 4 5 7 8 9 9 9 7 7 11 12 14 16 18 21 20 18 16 15 17 17 15 14 14 13 12 12 11 11 10 10 10 10 10 10 11 12 12 13 13 13 13 12 12 13 13 13 14 14 14 13 13 12 12 12 12 12 12 13 13 12 11 9 9 9 9 9 9 9 9 10 12 12 12
2 2 2 3 3 2 3 0 3 6 5 4 6 7 7 8 7 9 9 8 7 7 6 3 5 6 7 7 9 11 7 7 11 12 15 18 19 20 19 17 15 16 17 16 13 14 14 12 11 11 11 11 10 10 10 10 10 10 10 11 12 12 13 13 12 12 12 12 13 13 13 13 13 12 11 11 11 11 11 12 13 13 13 12 10 10 9 9 9 8 9 10 11 11 12 12 12
2 2 3 4 3 3 1 2 3 5 5 3 6 7 7 7 7 8 7 6 6 6 6 5 4 4 6 5 7 9 8 8 12 15 17 20 19 19 18 16 16 16 16 15 13 13 13 11 11 11 11 11 10 11 10 9 10 10 10 10 11 12 12 12 12 12 12 12 12 12 12 12 12 11 10 10 10 10 10 11 12 12 11 10 9 10 9 9 9 9 10 11 12 12 12 11 11
3 4 3 3 2 3 2 2 3 5 6 5 5 5 5 6 5 5 5 6 6 6 6 5 1 2 7 9 10 9 8 11 15 18 19 19 18 18 16 15 16 16 16 14 13 13 12 10 10 10 10 10 10 10 10 9 10 11 10 10 11 12 12 12 12 11 12 12 12 12 12 11 11 10 9 9 8 8 8 9 11 10 9 9 8 9 10 10 10 10 11 12 12 11 11 10 10
4 5 3 3 3 4 4 2 4 5 6 5 5 5 5 5 4 4 4 6 6 6 7 4 2 6 9 11 11 8 9 14 17 18 18 18 17 17 15 15 15 16 15 13 12 12 11 10 9 10 10 10 10 10 10 10 10 11 11 11 11 12 12 12 12 11 11 12 12 12 12 11 10 10 8 7 7 7 7 8 9 9 9 8 8 9 10 11 11 11 11 11 12 11 10 9 10
5 4 4 4 4 5 5 4 4 6 6 5 5 5 5 4 4 4 5 7 6 6 7 3 5 11 10 11 10 8 12 15 17 19 18 17 17 15 15 14 15 15 14 12 12 11 11 10 9 9 10 10 9 9 9 10 10 11 11 11 11 11 12 12 12 12 11 11 12 12 12 11 10 10 8 6 6 7 7 8 8 8 8 8 8 9 10 11 11 10 10 11 12 11 11 10 10
5 3 4 5 5 4 5 6 6 7 6 6 6 5 4 4 4 5 5 7 6 6 5 2 7 11 10 11 11 11 14 15 17 18 17 16 16 15 14 14 14 14 13 12 11 11 11 10 9 9 9 10 9 9 9 10 11 11 11 10 10 11 11 12 12 11 11 11 12 11 12 11 10 10 8 5 6 7 7 8 8 8 8 9 10 10 10 11 11 10 10 11 12 12 11 11 10
5 3 5 4 2 3 6 6 6 7 6 5 5 4 5 4 4 5 5 7 5 5 6 6 9 8 9 12 12 14 15 16 17 17 17 15 15 14 13 14 14 13 13 12 11 11 11 10 10 9 9 9 10 10 10 11 12 12 11 10 10 11 11 12 11 11 11 11 11 10 11 11 9 9 8 6 7 8 8 9 9 9 9 10 10 10 11 10 10 11 11 12 12 12 11 10 9
4 4 4 3 2 4 6 6 6 6 6 6 5 5 5 3 4 5 5 7 6 6 9 10 9 6 10 13 12 16 16 16 18 17 16 15 15 14 13 13 14 13 13 12 11 11 11 11 11 11 10 10 10 11 11 11 13 12 11 11 11 10 11 12 12 11 10 10 11 10 11 10 9 9 7 7 9 9 9 9 9 10 10 10 11 11 11 10 10 11 12 12 12 12 11 10 10
4 4 3 3 5 6 4 4 6 5 5 6 5 5 6 4 4 5 4 6 7 7 10 9 5 4 9 10 12 17 18 19 18 17 16 15 15 14 13 13 13 12 12 11 11 11 11 11 11 11 11 11 10 10 11 11 12 12 11 12 11 10 11 12 13 12 11 10 10 11 11 10 9 9 7 8 9 9 10 10 10 11 11 11 12 11 11 10 10 11 12 12 12 11 11 11 10
4 4 3 2 4 6 3 3 5 4 6 6 6 6 6 6 4 4 2 4 8 9 7 6 4 2 6 8 15 21 21 21 19 18 17 16 15 13 13 13 12 12 11 11 11 10 10 10 10 10 11 11 10 10 10 11 11 11 11 12 11 11 11 12 13 13 12 11 11 11 10 9 10 8 6 7 9 9 10 10 11 12 12 12 12 11 10 9 10 11 12 12 11 11 11 11 10
4 3 2 1 3 5 3 3 3 2 6 7 7 6 6 7 5 4 4 4 9 8 5 6 5 4 6 11 19 24 22 22 19 19 18 17 16 14 13 12 12 12 12 11 10 10 9 9 9 10 10 10 10 10 10 10 10 11 11 11 12 12 12 12 14 14 13 13 12 11 10 9 10 7 6 7 9 10 9 10 11 12 12 12 11 10 9 9 10 11 11 11 11 11 12 12 11
3 3 2 2 4 5 3 5 4 2 5 7 6 5 5 8 7 6 6 5 7 7 7 7 7 8 11 16 22 24 23 22 20 19 18 17 16 14 14 13 13 12 12 12 11 11 10 10 9 10 11 10 10 9 10 10 10 11 10 10 11 12 12 12 13 13 12 12 11 11 11 10 9 8 8 9 9 10 10 11 12 11 11 10 9 8 7 9 10 11 11 11 11 10 12 12 9
3 2 3 3 3 4 3 5 4 2 4 7 5 4 4 6 6 7 6 7 8 6 8 8 9 12 15 20 22 23 22 21 20 19 18 17 16 15 14 13 13 12 12 12 11 12 11 11 9 9 10 11 11 9 10 9 10 11 11 11 11 10 11 11 12 12 11 11 11 11 11 10 10 9 10 11 11 11 12 12 12 10 9 8 7 6 6 8 9 10 10 10 10 9 10 10 7
5 4 2 2 2 2 3 3 3 3 4 5 5 5 4 4 4 5 5 7 7 4 7 8 10 14 17 21 22 22 22 20 20 18 17 16 15 14 13 13 13 13 12 12 12 13 12 11 10 10 10 11 11 10 10 8 8 10 10 10 10 9 10 10 10 11 11 11 11 10 9 10 10 9 10 12 11 12 12 12 11 9 7 6 5 6 6 7 9 9 9 8 8 8 6 7 6
4 4 1 3 2 1 4 4 1 2 2 3 5 6 5 4 3 3 4 5 5 3 5 6 10 16 20 22 22 22 21 20 20 18 17 16 14 13 12 12 12 12 12 12 12 13 13 12 12 11 10 11 11 11 10 8 8 8 8 8 9 9 9 9 9 10 10 11 10 9 8 9 9 8 10 11 12 14 14 11 9 6 5 4 4 5 5 5 7 6 7 6 6 5 5 5 5
3 5 4 2 4 3 6 5 2 3 1 3 5 5 3 3 3 2 4 2 2 2 2 5 10 16 21 23 22 21 21 20 19 18 17 15 14 13 11 11 11 12 12 12 12 13 13 13 12 12 11 11 10 10 10 8 8 7 7 7 8 8 8 8 8 9 9 9 10 9 8 9 8 7 9 12 14 14 13 10 7 6 5 4 4 5 4 5 5 4 4 4 4 4 4 5 5
2 4 5 3 4 4 4 4 2 3 2 2 3 2 2 3 3 1 3 2 2 2 2 7 11 15 20 22 22 21 21 20 19 18 17 15 14 12 12 11 11 12 12 12 12 12 13 13 13 13 12 11 11 10 10 9 9 8 7 7 7 7 7 7 7 8 8 9 9 8 8 8 7 7 8 12 14 13 11 8 6 5 5 3 4 4 4 4 4 4 4 3 4 4 3 4 5
2 5 5 4 5 6 4 2 2 3 2 2 1 1 1 1 1 1 1 1 1 1 5 8 11 14 18 20 21 21 20 19 18 17 16 14 13 12 11 11 11 11 12 12 12 12 12 13 14 13 13 12 11 11 10 10 10 9 8 7 7 7 7 6 7 8 8 9 9 8 9 9 7 6 8 10 12 12 10 8 5 4 4 3 4 4 4 4 4 4 4 4 4 4 4 4 4
2 7 9 4 2 4 3 1 2 4 3 2 1 2 1 1 2 2 2 1 0 5 10 12 13 14 17 18 19 18 18 17 16 16 14 13 13 12 11 11 11 11 12 12 12 11 11 12 13 14 13 12 12 12 11 11 11 10 9 8 7 8 8 7 8 8 8 9 10 10 10 10 8 6 6 9 11 12 10 7 5 3 3 3 4 3 3 4 4 4 4 4 4 4 4 3 3
0 5 11 7 3 3 2 1 2 3 2 1 2 2 2 1 3 3 2 1 3 10 13 14 15 15 15 15 17 17 17 16 16 15 14 13 13 13 12 11 11 10 11 11 11 11 11 12 12 13 13 12 12 12 12 12 11 11 10 9 8 9 9 9 8 7 8 9 9 11 10 10 9 6 6 11 13 13 10 6 4 3 3 3 3 3 3 4 4 3 3 3 3 3 3 2 2
0 4 9 8 6 6 5 4 4 4 2 2 3 2 1 1 3 3 3 1 5 12 13 14 15 15 14 13 14 15 15 15 15 15 14 14 13 13 13 12 11 11 11 11 11 11 11 11 11 12 13 12 12 12 13 13 12 11 11 11 9 9 10 9 9 8 9 9 9 11 11 11 10 7 8 12 13 11 8 6 4 3 2 2 3 3 3 3 3 3 2 2 2 2 2 2 1
2 6 8 7 7 6 6 5 5 5 2 2 3 4 3 4 4 2 3 3 7 11 13 13 11 11 11 11 12 12 13 14 14 14 15 14 14 13 13 12 11 10 10 11 11 10 10 10 10 11 11 12 12 12 13 13 12 12 12 11 10 11 10 10 9 9 10 10 10 10 11 11 9 8 9 12 13 11 7 5 3 2 2 2 2 2 2 3 3 2 2 2 2 2 1 2 2
4 6 5 6 7 6 6 5 6 6 3 2 3 3 3 4 2 1 2 4 7 11 12 13 13 10 8 9 10 11 12 13 13 13 14 14 12 12 12 11 11 10 9 10 10 9 9 10 11 11 11 12 11 11 12 12 12 12 12 12 12 12 11 10 9 10 11 11 11 11 11 11 9 8 10 12 13 11 8 6 4 2 2 2 1 1 2 2 2 2 2 2 2 1 2 2 3
5 6 4 5 6 4 5 6 6 6 4 4 4 1 3 2 1 2 4 6 8 11 13 13 14 10 6 8 8 9 11 12 13 13 13 13 11 11 11 10 10 9 8 9 9 9 9 10 11 11 11 12 11 12 12 12 10 11 13 13 13 13 12 11 11 11 12 11 12 11 10 11 9 9 10 11 12 10 7 6 4 2 2 2 0 1 1 1 1 1 2 1 1 1 2 3 3
5 3 4 4 2 1 4 6 7 6 5 6 4 0 3 3 2 3 5 7 9 12 17 16 13 9 9 14 11 9 11 12 13 13 12 12 10 10 10 9 10 10 8 8 9 9 9 9 10 10 11 12 12 13 13 12 10 10 11 12 13 14 13 13 12 12 13 12 12 11 10 10 9 9 10 10 13 11 6 5 4 3 4 1 1 2 1 1 2 2 2 2 2 2 2 3 4
4 2 4 2 2 3 5 5 7 4 3 7 5 0 3 3 2 2 5 7 8 9 17 19 16 15 14 16 13 10 11 11 12 12 12 11 10 9 9 9 10 10 8 8 10 10 10 9 9 9 10 10 12 13 12 12 11 10 11 12 13 14 14 14 14 14 14 12 11 10 10 10 9 10 10 11 13 11 6 4 4 5 5 2 2 3 1 2 2 2 2 3 3 4 4 4 4
4 2 2 2 2 2 4 5 6 3 3 6 6 2 1 3 3 4 4 6 7 7 13 22 20 18 13 13 13 11 11 11 11 11 11 10 10 9 8 9 10 9 8 8 10 10 10 10 9 8 9 10 12 13 12 13 12 12 11 11 12 13 13 12 13 14 13 11 10 10 11 11 10 9 10 11 12 9 6 4 3 5 4 3 3 2 2 2 2 3 3 3 3 4 5 5 5
3 2 1 3 3 2 2 4 5 5 4 4 6 4 1 3 3 5 4 5 7 7 9 19 18 16 13 12 12 10 10 11 11 11 10 9 9 9 8 10 10 9 8 8 11 11 11 11 9 8 10 10 12 13 12 12 11 12 11 9 11 14 12 10 11 12 12 11 11 11 11 11 10 10 10 11 11 9 7 5 4 4 3 3 3 1 2 3 2 3 3 4 4 4 5 6 6
1 1 1 1 1 2 2 2 4 6 5 4 5 2 1 1 0 2 4 4 6 6 4 13 15 14 14 13 13 12 10 9 9 10 11 10 9 9 9 9 11 11 10 8 11 11 11 12 10 9 10 10 11 12 12 11 10 11 11 10 11 13 13 12 12 12 12 11 11 12 12 12 11 10 10 11 11 9 7 5 5 4 3 3 3 2 2 2 2 2 2 4 4 4 5 6 6
5 4 4 4 2 2 4 4 1 3 5 3 2 1 2 1 1 1 3 2 4 5 4 8 13 13 13 14 13 12 10 8 6 6 10 11 10 10 10 10 10 11 10 9 11 11 10 13 12 11 10 11 12 12 11 10 10 12 11 10 11 12 14 14 13 13 13 11 11 13 13 13 12 11 10 11 11 10 7 5 6 5 3 2 2 2 2 3 3 2 3 6 4 4 6 6 6
7 6 4 3 3 2 4 3 2 3 4 3 4 2 4 2 1 2 2 2 4 5 5 6 9 12 14 14 13 14 13 11 8 6 7 8 9 9 9 9 9 10 10 11 13 12 11 12 13 12 11 11 12 12 12 11 12 13 12 11 11 11 14 15 13 13 13 12 13 14 14 14 12 11 11 11 11 10 9 6 6 6 4 3 3 3 4 6 6 3 4 6 5 5 6 5 5
7 6 5 3 1 3 3 1 2 3 4 4 4 5 2 1 1 2 1 3 2 2 4 4 6 10 12 14 14 15 15 15 13 10 8 7 8 8 9 9 9 11 11 11 12 12 11 11 12 13 12 11 12 11 12 13 13 12 11 11 11 11 13 15 13 13 13 12 15 15 15 15 13 12 12 12 11 11 10 7 6 7 6 6 6 5 6 8 7 5 4 5 5 6 6 5 5
8 5 5 3 1 4 4 2 3 4 3 2 4 3 3 2 2 3 1 2 1 1 1 2 3 6 10 12 13 14 16 16 15 12 9 7 7 7 8 9 10 10 8 8 11 11 11 11 12 13 12 11 11 11 12 12 12 12 11 11 12 11 12 13 12 13 14 13 15 17 16 15 14 12 12 12 11 11 10 8 5 5 7 7 6 5 6 7 6 5 5 5 5 6 6 5 5
7 5 5 3 1 1 1 3 4 4 1 1 2 2 2 2 1 2 0 3 3 2 1 2 3 5 6 9 11 13 16 18 16 13 10 7 6 6 8 8 9 10 7 5 8 10 11 12 12 13 13 11 10 11 12 11 11 12 12 12 13 12 12 14 13 14 16 14 14 16 16 15 14 13 13 12 12 11 12 9 6 4 6 7 6 5 5 5 5 5 5 5 6 7 6 5 5
7 6 7 4 1 2 2 3 6 4 3 2 2 3 1 2 1 2 3 2 3 2 2 3 4 4 4 6 8 11 14 16 16 15 15 12 6 5 7 7 8 9 7 6 7 9 10 11 12 13 12 10 9 10 11 11 12 12 12 12 13 13 14 15 16 15 16 16 14 14 16 16 15 14 14 13 12 12 12 11 9 6 5 7 5 4 4 4 5 5 6 6 6 6 6 5 5
6 7 7 6 3 2 2 5 5 4 4 3 4 5 1 3 2 1 2 3 3 2 3 5 4 4 4 6 7 8 11 12 13 14 16 15 8 5 6 6 7 10 8 6 7 8 9 10 12 12 11 8 9 10 10 11 12 11 12 12 12 13 14 14 15 14 14 16 14 13 15 16 16 15 14 13 12 12 12 11 11 7 5 6 5 5 5 5 5 4 5 5 5 5 6 5 5
4 3 3 4 3 2 2 4 5 6 1 2 6 5 2 4 3 1 1 1 2 2 3 4 4 4 5 6 6 7 8 9 10 10 12 13 9 6 6 7 8 9 8 6 6 8 9 10 11 12 11 9 11 11 10 10 10 10 11 12 13 13 13 13 15 13 13 14 13 13 14 15 16 15 13 13 13 12 12 11 11 9 6 5 5 5 4 4 5 5 5 5 4 6 5 5 5
0 5 2 3 4 5 3 4 6 4 1 3 5 4 5 2 3 0 1 1 1 1 1 1 2 3 5 5 6 7 7 7 8 9 11 11 8 6 7 7 8 8 7 7 6 8 10 11 12 12 10 9 10 10 10 10 10 11 12 13 13 14 13 13 16 15 13 14 15 14 14 14 15 15 14 15 15 13 12 12 11 10 8 6 6 5 4 5 5 5 6 6 5 6 5 4 5
3 6 0 2 3 4 4 6 5 2 3 4 4 3 6 1 4 3 3 2 1 2 2 4 4 3 1 4 4 5 7 7 6 7 9 9 6 6 7 8 8 8 7 7 7 8 10 11 12 12 11 8 8 9 9 11 11 11 12 13 14 14 14 14 17 17 15 16 17 16 14 13 14 15 16 16 16 14 13 12 11 10 9 7 6 5 5 6 6 7 7 6 5 5 5 5 5
5 4 2 2 2 3 4 6 3 1 6 5 3 3 6 1 4 4 3 2 2 4 3 5 6 6 4 1 2 3 5 6 6 6 9 9 8 6 7 8 9 9 8 8 8 8 10 11 11 12 12 8 7 8 9 10 11 11 12 14 14 14 15 14 16 17 17 18 18 17 17 15 13 13 15 15 16 15 14 13 11 10 9 8 7 7 7 7 7 7 6 6 7 6 5 6 6
5 5 4 4 3 3 3 4 2 4 6 2 2 2 5 2 2 2 2 3 3 3 4 5 6 7 7 3 1 1 3 6 6 6 8 10 9 7 7 8 9 10 9 9 9 9 9 11 11 12 12 8 7 8 9 10 12 12 12 14 13 13 14 14 15 17 18 19 19 17 16 16 14 13 13 14 15 14 14 14 12 11 9 9 9 9 8 7 7 6 6 7 8 7 6 6 6
5 6 4 4 4 3 4 3 3 7 4 2 2 3 6 4 0 2 4 5 4 3 3 4 5 7 7 5 3 1 1 4 5 6 7 9 9 9 8 8 9 10 11 10 10 10 10 11 11 12 13 10 7 8 9 11 12 13 13 13 13 13 14 15 16 17 19 19 19 16 15 16 16 14 12 12 13 13 14 15 13 12 11 10 10 9 8 8 7 7 7 7 7 7 7 7 6
6 6 5 5 4 4 5 4 4 6 1 3 1 3 5 2 3 4 4 5 4 4 4 4 5 7 7 6 5 3 1 1 4 5 6 8 10 11 10 10 9 10 11 11 10 10 11 11 10 11 14 12 9 8 9 11 12 12 13 14 14 14 14 16 16 17 18 18 17 16 15 16 17 15 14 13 13 13 14 15 14 13 12 11 11 11 11 10 9 8 7 7 7 7 7 7 6
7 6 5 5 4 4 5 4 4 3 1 3 1 3 4 2 4 3 3 5 4 5 4 3 5 6 6 6 5 4 3 1 1 3 5 7 9 10 11 11 11 11 11 9 10 11 11 12 11 11 13 14 11 10 9 11 12 13 13 14 14 15 15 16 16 15 15 16 17 16 15 15 15 15 14 14 14 13 13 13 14 13 13 13 12 12 12 10 9 9 8 8 7 7 8 7 7
5 4 5 5 5 5 4 3 3 2 1 3 3 3 3 1 2 2 4 5 3 4 4 3 3 4 4 5 5 5 5 4 2 1 4 5 7 8 10 11 12 14 13 10 10 11 11 12 12 11 12 14 13 11 11 11 13 13 14 14 15 15 16 16 16 15 14 14 15 15 15 14 13 13 13 14 14 14 13 13 13 13 13 13 12 12 11 9 10 9 9 9 8 8 8 7 6
3 2 5 4 3 3 3 3 4 5 3 2 3 2 2 3 3 4 4 5 4 4 4 3 3 3 3 4 5 5 5 4 3 2 0 3 5 7 9 10 11 14 15 13 11 11 12 13 12 12 13 15 15 14 12 11 12 14 14 15 16 16 16 17 17 17 17 15 14 14 15 15 13 12 12 13 14 14 14 13 13 13 13 13 12 12 11 10 10 10 9 9 8 7 8 8 7
3 4 3 2 3 4 3 2 2 4 5 1 1 1 4 4 5 6 6 5 5 4 3 3 3 3 2 3 4 4 4 4 3 3 1 1 3 5 7 8 10 12 15 15 14 12 13 13 13 12 12 14 16 17 15 13 12 15 16 16 17 17 17 17 16 17 17 16 16 15 14 14 14 13 12 12 12 13 14 14 13 12 13 13 12 12 11 11 11 10 9 9 8 7 8 9 7
3 3 2 4 0 4 4 2 3 5 5 1 1 2 1 2 2 5 7 6 6 5 4 3 3 2 3 4 4 4 4 3 3 3 2 2 2 3 5 6 8 11 14 15 16 16 15 14 14 14 13 14 16 18 17 16 14 15 17 19 19 18 18 17 16 16 15 15 16 16 15 13 13 13 12 12 12 13 14 14 13 13 13 13 13 12 11 11 11 10 9 10 8 8 9 9 8
4 1 4 2 2 3 3 3 3 3 3 1 2 1 2 1 1 5 7 6 6 6 5 3 3 3 2 3 4 4 4 3 4 4 4 3 3 4 4 5 6 9 11 12 14 17 19 17 15 15 15 14 16 17 17 18 17 16 17 20 20 19 19 18 17 16 16 16 16 16 15 14 13 13 13 14 13 13 13 13 14 13 13 13 13 12 12 12 12 10 9 9 9 9 10 9 9
2 3 4 3 2 1 1 2 2 3 3 1 1 2 1 3 3 4 6 6 6 6 5 4 3 3 2 3 3 3 4 4 5 5 5 5 5 5 5 6 6 7 9 10 12 14 18 18 16 16 16 15 16 16 17 18 18 17 17 19 21 22 21 19 19 18 17 17 16 16 15 15 14 13 13 14 14 13 13 13 13 12 12 12 12 12 12 12 12 11 11 10 9 10 10 9 9
5 5 5 4 2 1 2 1 2 4 3 1 2 1 4 5 3 2 4 6 6 5 5 4 3 4 3 3 3 4 4 4 5 5 6 6 6 6 6 6 7 7 7 8 10 12 15 17 17 17 17 16 17 17 17 18 19 18 18 19 20 22 22 21 20 20 19 18 17 17 16 15 15 14 14 14 14 14 14 13 12 12 12 12 12 12 12 11 12 12 12 11 10 11 11 10 9
3 4 4 4 3 3 4 3 2 2 3 2 4 3 4 6 2 1 3 5 6 6 6 5 4 3 3 3 2 3 4 4 6 6 7 7 7 7 7 7 6 7 7 7 8 10 13 15 16 17 18 17 16 17 18 18 18 19 19 19 19 20 21 21 21 21 21 19 18 18 18 17 16 16 15 15 15 14 14 14 13 12 12 12 12 13 12 11 12 12 12 12 11 11 11 10 9
Wind_Direction
68 85 67 218 139 327 245 255 232 185 215 93 85 97 82 69 92 100 104 114 120 114 99 114 125 124 104 75 78 73 53 34 38 71 93 119 137 141 146 151 155 152 149 152 155 153 150 148 145 142 141 142 135 129 130 131 130 129 128 131 132 131 131 131 129 127 123 117 114 110 104 100 99 100 104 113 122 124 121 118 117 116 112 108 106 103 101 102 112 111 101 99 99 94 90 88 83
88 98 289 317 77 342 295 255 240 138 152 99 82 81 93 98 97 92 88 90 101 114 122 122 124 110 94 91 85 93 72 48 59 89 100 126 132 135 150 151 154 155 151 151 152 152 152 150 145 143 143 141 134 132 134 133 130 129 129 132 134 133 133 133 131 126 124 119 116 113 108 103 99 101 103 109 117 124 125 124 122 120 117 113 110 105 103 105 114 113 105 103 100 96 96 95 89
147 126 332 3 20 307 285 254 235 136 124 97 94 83 99 100 87 86 81 83 102 121 129 124 116 90 110 118 74 71 85 65 83 103 115 131 132 140 151 149 154 154 147 147 151 152 151 150 145 143 144 141 138 137 135 132 128 130 132 134 135 134 134 133 130 127 123 119 117 116 110 104 100 100 101 104 111 118 122 123 122 121 120 118 112 105 103 106 112 112 109 105 101 101 101 99 94
166 175 255 330 312 273 266 240 229 115 100 97 101 91 82 84 88 90 85 94 113 131 135 130 109 67 74 98 68 71 90 84 95 114 127 136 141 146 147 148 151 146 145 150 151 150 150 151 147 146 149 148 146 143 139 136 134 136 137 137 138 137 137 135 132 128 123 121 121 119 110 104 102 100 98 98 103 110 113 116 117 116 116 113 110 106 106 109 112 114 113 109 105 104 100 99 96
107 155 212 285 279 277 279 262 279 54 78 87 103 98 85 85 94 97 100 113 126 139 141 137 111 94 77 65 48 76 88 96 110 123 129 134 141 143 145 147 146 144 150 151 149 149 153 154 150 152 155 154 154 149 145 143 143 144 143 143 144 141 139 137 133 130 125 122 124 120 112 107 105 101 97 96 98 104 109 112 114 112 109 104 104 107 108 110 113 117 116 111 105 100 95 94 93
27 296 256 246 269 290 278 252 101 87 68 61 99 100 94 95 98 103 112 119 128 143 143 122 109 121 94 69 58 64 75 104 122 131 130 132 140 144 144 145 145 148 151 147 145 150 157 158 155 157 157 159 161 154 149 147 146 147 147 148 148 145 140 138 135 132 127 124 126 122 115 112 107 102 98 95 95 103 109 111 109 103 98 96 97 101 107 111 115 117 114 108 100 95 94 93 91
306 278 224 231 222 241 271 120 82 96 84 38 88 101 100 102 102 108 115 121 132 146 149 108 112 121 99 99 78 63 67 101 125 133 133 135 140 144 142 143 146 149 148 142 143 151 160 164 161 158 157 160 161 157 153 148 147 149 149 149 150 147 142 140 137 135 131 129 130 124 119 116 110 105 101 96 95 100 108 107 100 92 89 91 91 94 103 112 115 117 112 107 103 101 98 95 91
305 276 234 251 202 180 248 92 65 81 100 67 76 90 100 112 108 105 113 122 137 147 151 133 129 108 94 109 87 71 75 99 126 131 134 137 139 142 139 143 145 147 146 142 149 155 160 164 158 155 155 156 159 159 157 152 148 151 153 152 152 150 146 144 141 138 134 134 133 127 123 120 113 109 105 101 98 100 110 110 103 97 94 93 91 94 101 109 112 114 111 109 109 107 102 96 89
281 268 244 254 222 155 135 114 105 85 103 110 89 93 110 125 115 105 112 111 129 139 134 132 140 100 106 101 91 88 91 109 126 130 134 136 139 141 139 144 145 147 145 146 155 156 159 160 153 152 153 153 156 159 160 158 154 155 157 156 154 154 152 147 144 140 137 137 135 131 129 124 117 112 109 106 104 106 114 117 114 112 110 105 97 96 104 112 112 112 110 109 110 108 104 98 91
258 243 250 255 228 155 141 148 132 110 107 107 99 116 135 141 126 104 100 99 118 123 110 120 109 110 115 103 96 95 109 124 129 131 135 138 141 139 139 145 148 149 145 148 153 154 158 155 152 150 150 151 153 159 164 165 164 160 158 158 158 157 153 149 145 140 141 140 136 134 133 130 125 117 113 113 113 116 121 123 121 119 117 111 102 103 112 118 116 114 111 109 110 110 109 103 95
262 217 242 250 211 172 154 150 133 117 117 121 111 118 143 149 130 101 97 105 117 115 108 136 118 113 112 99 97 107 124 133 134 135 139 141 141 140 142 145 149 150 146 148 150 155 157 152 152 149 149 150 153 162 169 173 170 164 159 158 161 156 151 151 147 142 144 143 140 138 137 136 131 122 117 119 123 128 134 131 127 121 116 114 113 115 120 121 119 117 113 111 111 111 110 101 91
276 217 219 232 208 174 135 136 131 123 128 137 123 118 145 152 132 107 105 109 112 108 96 112 126 123 116 103 107 124 133 137 138 139 142 141 141 142 144 146 151 152 149 150 150 155 155 153 153 149 150 150 152 156 162 176 172 163 159 157 160 157 152 152 150 147 147 147 143 140 140 138 135 126 119 129 136 137 139 133 129 124 122 124 126 124 123 122 119 116 113 111 110 107 101 92 85
293 275 230 226 214 150 123 127 132 135 136 127 110 115 150 158 138 108 101 105 89 76 78 108 133 128 108 107 120 134 139 141 143 143 142 142 144 144 145 148 152 155 155 151 152 157 158 158 156 150 149 148 148 144 148 166 166 160 160 159 164 162 156 154 153 151 151 149 143 143 144 140 136 127 123 140 139 135 135 130 129 126 125 126 127 128 124 121 117 114 113 109 106 101 94 88 81
303 285 257 221 171 144 128 128 142 145 124 112 107 123 149 150 133 120 112 109 76 68 93 115 125 116 118 120 133 145 146 147 148 146 144 145 146 145 146 149 152 158 156 153 159 162 165 164 160 152 148 151 152 149 150 157 159 159 162 164 167 163 157 158 158 155 156 154 148 152 151 147 142 128 128 144 138 136 134 131 131 128 127 123 123 126 125 123 118 115 112 107 102 97 91 85 77
306 271 263 211 171 145 130 132 151 148 116 120 118 134 141 116 136 137 113 96 86 102 115 120 105 106 145 147 150 153 151 151 151 148 147 147 146 147 149 151 153 158 155 157 164 168 174 167 162 156 154 161 158 157 157 159 162 161 164 165 167 164 160 164 165 161 161 159 156 159 154 148 140 128 137 144 140 141 137 135 136 132 128 121 120 124 126 126 122 117 110 103 98 92 86 82 79
320 273 248 203 164 134 133 152 159 139 112 123 120 138 135 115 143 135 104 102 113 127 127 117 82 80 152 148 149 152 151 152 152 149 150 147 147 149 152 155 155 159 159 165 167 169 180 172 165 164 165 166 163 164 159 163 167 163 165 164 168 169 165 167 169 169 167 165 162 160 154 141 129 127 142 145 145 145 141 140 138 134 126 121 121 124 127 126 120 113 104 99 94 89 85 85 87
19 315 264 153 115 107 99 108 138 126 109 122 133 148 138 127 145 126 131 136 122 128 121 104 75 79 127 131 142 147 149 152 153 151 152 150 151 154 157 160 162 166 168 173 175 173 179 179 175 172 175 173 167 168 160 164 168 165 166 162 166 170 167 165 169 172 169 169 165 156 149 138 131 137 152 150 150 144 141 142 137 132 124 122 125 126 127 121 111 103 97 95 89 89 91 84 83
49 353 345 62 65 80 38 44 88 164 125 122 140 159 144 136 145 144 146 138 129 125 119 112 88 92 115 128 139 146 149 153 155 156 157 157 158 160 163 166 168 172 174 178 183 181 179 181 184 180 182 182 175 170 163 169 170 167 168 163 165 169 166 162 165 168 167 168 164 155 150 149 154 164 167 156 151 146 142 142 138 132 126 126 128 126 120 107 101 97 91 89 87 93 95 83 78
81 39 4 40 9 36 14 17 58 81 104 114 141 156 141 131 143 164 165 148 148 133 127 129 110 112 124 134 142 146 151 155 159 161 162 163 164 165 168 170 172 174 176 181 186 186 183 182 187 186 189 189 185 179 173 176 174 169 168 167 167 169 166 161 163 167 167 168 166 163 161 168 171 166 161 151 146 145 143 144 140 134 130 131 130 118 105 96 93 93 88 87 90 91 88 84 82
95 92 11 53 306 343 26 351 26 53 91 127 144 146 137 123 141 174 180 161 161 134 130 138 130 133 139 143 147 150 154 158 162 165 167 167 168 170 171 173 175 177 177 180 187 188 186 185 186 189 193 194 191 186 183 182 181 174 167 168 169 168 168 166 171 173 172 174 170 170 169 171 166 153 147 142 142 142 143 145 141 138 133 131 126 102 89 91 91 89 88 89 89 88 84 87 91
108 115 47 31 324 7 41 4 29 85 93 131 144 156 143 125 151 185 197 175 161 142 132 135 142 147 149 152 154 156 159 162 166 169 170 171 171 173 174 176 177 179 178 179 188 190 188 188 186 188 192 194 194 188 187 191 192 181 171 175 171 168 171 170 180 182 179 177 169 167 165 163 156 149 146 142 145 146 145 144 140 142 131 127 117 91 83 86 86 85 87 88 88 95 100 96 95
109 107 126 63 333 4 38 22 84 107 87 139 159 162 126 142 169 178 223 220 88 90 139 136 146 154 157 159 159 161 163 165 169 171 173 174 173 174 175 176 177 180 182 182 188 192 191 191 186 186 191 194 196 192 190 199 199 186 182 188 176 174 177 172 181 187 183 177 168 163 159 159 154 150 151 148 148 146 146 145 144 143 121 116 107 85 81 81 84 91 92 100 108 108 107 108 106
128 107 139 174 263 291 16 40 101 116 118 136 153 144 111 183 170 112 244 267 34 50 160 151 149 156 160 161 163 165 167 169 171 173 175 175 175 175 174 174 176 181 185 186 188 193 193 193 190 186 190 194 197 198 196 201 203 196 196 196 183 180 180 173 182 188 186 178 170 164 159 157 151 149 155 154 150 146 147 149 149 136 113 111 106 87 82 83 89 103 104 118 121 116 116 113 107
166 133 155 201 230 266 318 22 117 127 118 87 70 189 199 253 176 28 276 263 291 112 143 152 149 155 160 164 168 169 170 172 173 173 174 175 175 174 173 173 175 181 186 186 188 195 195 195 196 190 190 194 197 200 199 202 205 204 203 199 192 188 180 179 191 192 190 184 175 169 164 157 149 153 159 157 155 154 155 153 142 127 119 114 103 90 88 90 94 102 102 111 116 117 117 114 110
180 134 148 180 238 268 293 345 134 143 138 111 200 190 175 319 321 305 295 335 70 132 145 151 151 159 164 167 171 172 172 173 172 172 172 174 173 173 174 175 177 181 185 187 188 192 195 199 201 196 196 198 198 199 200 203 206 206 206 201 199 194 185 191 199 196 196 193 184 172 164 160 152 151 163 165 165 163 162 156 137 132 133 112 98 93 93 92 97 101 99 103 108 111 110 110 113
330 139 145 157 183 211 206 157 158 164 153 173 228 195 169 276 293 258 207 359 116 143 151 151 154 164 169 169 171 174 174 174 172 170 171 171 173 176 178 178 179 181 183 186 190 190 195 202 203 200 203 203 201 200 200 205 208 209 208 205 204 198 193 201 203 197 200 201 191 177 167 167 157 151 184 179 173 171 169 161 142 134 126 108 101 95 93 95 99 100 96 101 102 99 99 95 90
241 157 142 153 166 168 184 183 167 167 171 211 245 245 183 164 269 225 142 139 145 147 153 153 157 164 169 171 170 174 176 175 173 171 171 171 175 179 180 181 181 181 181 182 189 192 196 203 204 204 208 208 206 203 204 207 208 211 212 210 207 201 199 203 203 200 202 201 195 184 173 171 164 168 190 180 173 174 174 171 157 138 125 117 104 89 93 98 96 94 93 96 93 86 79 63 33
168 152 141 146 156 156 180 188 166 175 190 208 245 269 235 203 238 246 126 162 158 154 158 149 143 153 170 176 171 175 178 175 175 175 175 174 178 181 183 184 181 182 183 184 190 195 197 199 202 206 210 210 209 206 209 211 208 213 214 212 209 205 203 202 206 209 206 200 195 189 177 173 174 183 187 178 176 175 175 178 170 154 135 112 93 93 97 95 83 61 60 58 63 68 43 14 360
153 165 158 146 163 164 169 179 176 195 196 168 239 265 223 200 213 217 182 183 162 156 152 139 139 154 177 185 181 179 178 178 179 180 179 178 180 180 183 183 181 184 183 188 195 197 196 196 201 207 209 212 212 207 210 212 210 215 214 211 210 205 204 203 208 213 207 200 194 190 180 176 180 186 182 179 181 181 184 186 172 178 173 143 126 108 77 72 70 30 22 27 30 35 11 354 350
172 191 215 172 172 166 164 174 178 197 180 166 232 270 120 117 90 196 203 192 172 148 141 147 149 147 169 195 204 192 181 184 184 185 182 180 183 180 182 182 181 185 185 190 197 197 196 199 205 206 209 211 211 208 210 211 208 214 215 212 209 205 205 205 208 214 208 201 196 188 178 180 185 183 177 178 184 183 188 193 174 185 203 178 183 132 77 30 17 14 6 7 357 345 343 342 344
191 193 235 208 145 172 182 171 177 194 173 177 219 16 104 101 90 200 198 192 188 157 144 153 154 146 180 195 204 206 192 189 187 185 185 186 187 183 185 185 186 189 190 191 195 197 196 207 215 210 212 210 209 213 213 211 206 209 214 212 210 208 208 207 209 214 210 203 196 187 179 183 187 182 174 179 188 184 182 196 183 207 222 194 261 236 145 341 315 348 348 342 336 325 331 333 334
177 144 227 198 92 171 178 176 194 205 160 183 215 280 124 120 83 167 189 190 201 181 143 143 163 173 190 194 193 206 198 189 191 187 187 191 191 192 192 189 192 195 199 196 196 199 196 218 233 216 215 211 209 218 215 210 207 204 212 213 210 209 211 212 213 215 212 203 192 186 186 188 188 183 175 181 190 183 180 191 197 228 234 217 257 263 280 303 297 304 318 328 322 319 318 317 323
173 199 236 65 43 154 152 182 198 204 168 180 206 258 105 112 89 112 171 185 196 214 140 137 167 179 186 198 195 209 203 189 198 196 193 197 198 202 198 195 200 203 210 205 203 205 200 223 240 208 208 216 214 219 214 210 207 204 209 212 210 208 209 213 216 215 209 198 189 189 193 192 189 182 178 186 189 183 186 187 202 233 233 234 256 270 283 281 294 299 309 312 299 309 316 312 316
179 233 299 64 357 1 112 167 168 188 206 189 198 239 2 96 97 108 152 182 186 223 148 139 169 178 177 200 205 215 212 196 202 207 206 204 205 211 206 204 209 213 220 209 207 211 200 214 230 206 204 215 216 218 216 213 207 204 205 207 211 208 204 207 211 211 204 195 191 194 195 193 190 183 184 191 188 187 191 186 203 227 229 244 254 260 268 274 288 297 306 300 302 314 313 314 316
85 359 327 38 342 6 31 67 151 188 211 209 194 212 315 166 144 119 145 173 185 218 171 144 167 178 180 198 209 214 218 212 208 214 220 220 221 220 216 215 213 219 227 210 207 213 201 204 220 222 213 207 210 215 216 212 204 203 202 203 210 207 203 204 205 201 197 194 194 198 197 194 191 185 188 193 191 193 194 191 213 229 234 247 256 253 269 286 286 300 280 275 313 333 307 312 314
342 329 314 332 337 41 33 31 115 215 222 201 150 34 288 218 110 100 135 172 197 202 203 159 163 180 188 196 209 211 212 213 204 208 220 229 235 229 225 224 218 223 229 215 216 225 216 209 219 233 227 207 203 208 210 206 202 203 199 200 207 205 204 204 204 199 194 195 197 200 200 195 192 186 188 194 193 194 192 195 215 222 223 241 256 253 261 274 271 302 291 281 321 335 308 313 314
304 296 295 315 318 53 53 43 59 265 245 101 92 206 253 254 102 81 113 190 216 201 209 190 169 179 191 201 209 206 204 210 217 222 219 223 234 232 227 224 218 220 223 219 221 229 230 222 223 236 237 219 208 205 206 204 204 204 197 199 203 203 203 201 203 201 194 197 200 200 200 197 192 188 189 193 194 196 198 202 217 222 223 235 239 241 248 254 256 278 309 305 322 319 308 309 311
277 287 295 287 283 79 78 44 69 231 245 91 136 199 214 344 51 84 171 214 224 213 213 207 185 182 193 205 206 200 200 207 219 228 225 224 232 231 223 219 218 218 221 220 217 223 233 226 220 232 244 237 219 207 211 214 213 209 198 197 198 199 203 199 199 199 193 200 204 201 202 199 193 189 191 193 193 198 203 206 223 232 235 240 245 252 261 262 262 272 297 307 309 305 303 300 305
268 270 273 265 122 109 121 125 139 194 236 116 171 193 91 64 53 71 254 267 348 17 301 232 213 201 203 207 203 198 195 199 213 222 221 230 237 229 216 216 216 209 210 216 214 220 230 226 220 231 248 246 222 208 216 222 218 208 196 196 194 193 199 196 195 198 194 198 206 203 202 201 196 191 191 193 195 201 207 207 215 238 245 245 249 257 263 271 275 277 286 295 298 299 300 297 304
255 256 259 248 160 177 144 149 163 182 270 66 170 194 93 99 107 118 166 303 314 327 311 270 241 229 221 218 212 207 201 200 206 210 211 218 226 223 213 210 204 196 202 214 212 214 221 229 232 239 253 252 224 214 216 215 213 209 202 200 196 190 194 192 192 198 196 195 203 206 204 201 199 194 192 195 199 208 213 214 214 229 248 245 250 266 270 277 282 280 280 280 285 294 297 295 300
227 236 260 273 315 339 9 130 156 177 191 175 213 223 130 90 117 164 148 214 264 260 265 260 238 232 233 232 223 220 218 211 207 211 221 227 228 224 211 202 192 191 209 222 211 210 216 231 238 243 256 251 222 221 220 207 206 210 205 203 199 196 197 195 194 197 198 197 197 202 204 203 202 197 196 199 203 213 216 221 226 229 249 249 246 269 274 272 279 284 283 279 281 287 291 296 297
219 209 239 279 327 8 68 144 176 228 198 183 250 256 176 128 121 40 127 187 215 217 260 257 242 239 241 240 230 228 228 220 215 218 227 233 231 219 203 195 189 189 206 228 218 210 213 226 234 244 257 239 209 220 222 207 203 204 196 194 193 192 194 195 195 192 196 199 194 196 203 205 204 200 199 202 204 214 217 222 230 227 239 253 246 252 261 272 283 285 285 285 284 284 286 295 297
234 156 205 269 276 254 205 189 238 280 312 184 249 269 254 156 131 40 359 221 187 184 241 251 255 256 250 248 237 232 229 222 221 213 215 224 220 206 202 199 194 196 216 246 233 210 208 221 228 240 255 234 210 215 214 204 203 199 191 189 189 187 189 191 191 188 192 196 189 191 201 205 206 200 200 206 206 211 218 223 229 226 228 246 253 257 262 271 278 276 277 275 269 276 287 297 295
236 81 111 221 240 246 236 236 258 295 13 184 221 272 278 191 128 108 229 206 162 164 219 245 308 277 254 251 237 234 235 227 221 205 204 216 213 202 202 199 194 201 227 241 226 208 209 226 232 236 250 238 215 210 206 204 201 196 192 191 192 188 187 191 191 188 188 190 189 191 197 205 208 199 198 209 210 210 218 223 228 227 229 240 248 257 263 262 267 267 272 278 277 283 292 293 292
66 70 116 193 243 257 249 253 264 305 276 231 177 238 273 190 127 171 197 188 128 88 55 47 29 13 291 251 239 233 233 227 221 205 199 202 203 204 201 200 200 203 219 221 213 207 209 227 235 232 241 239 218 205 202 203 197 195 196 193 194 190 187 194 195 193 192 191 193 194 193 199 207 204 204 211 211 213 220 223 226 228 230 240 247 254 257 256 260 264 271 281 282 282 284 284 290
87 102 166 151 216 238 243 258 261 250 266 261 144 200 279 355 127 167 183 178 108 95 74 53 42 39 43 324 252 232 220 215 215 204 194 190 193 207 204 203 208 208 213 213 209 205 204 220 229 229 236 234 218 207 203 202 192 193 202 197 195 196 192 194 194 195 197 196 197 199 198 197 199 205 211 216 216 217 222 223 224 231 234 241 248 246 247 253 262 270 276 274 268 268 271 279 286
121 164 185 176 203 226 243 263 282 257 251 242 117 237 277 287 135 145 114 87 68 80 84 61 43 39 42 39 14 253 210 202 204 199 196 193 194 209 212 208 211 212 214 211 209 205 201 212 223 231 237 233 220 211 203 203 194 192 204 200 195 199 198 195 193 195 198 199 197 199 204 203 197 200 209 219 223 222 225 225 223 230 237 242 248 251 253 258 263 267 267 269 274 278 274 274 278
181 208 212 207 202 206 229 218 230 255 249 113 106 255 261 265 339 91 99 90 69 61 66 51 33 37 43 38 29 15 222 194 194 196 197 197 201 212 218 219 217 214 213 210 209 208 205 215 227 234 237 235 226 214 204 203 199 197 203 201 195 197 199 200 200 199 199 200 198 197 203 205 202 203 205 214 222 220 223 226 224 228 236 240 245 249 249 250 249 251 254 260 272 279 278 278 278
215 223 221 235 222 206 233 219 215 248 249 100 125 256 251 261 53 71 103 105 89 71 58 42 32 35 44 42 36 39 30 199 189 198 205 207 216 222 226 230 226 214 212 212 212 211 210 222 237 239 238 237 229 218 209 201 201 204 204 203 201 199 199 203 205 203 203 202 200 199 203 206 207 209 209 213 216 215 221 228 229 232 240 243 243 244 246 248 248 248 248 251 260 271 274 275 276
213 225 223 240 249 241 243 232 234 253 146 115 121 256 238 171 84 59 94 99 86 84 77 53 44 37 43 51 46 52 57 52 192 212 224 224 227 229 231 233 229 218 213 216 218 216 213 222 240 242 238 239 232 221 214 202 201 207 205 204 207 204 201 202 202 202 204 204 202 202 204 207 212 214 214 217 216 214 219 230 236 240 243 245 246 247 250 253 253 249 247 248 251 258 262 266 271
198 236 245 249 259 262 264 259 269 290 154 134 150 244 276 117 124 97 105 111 106 111 108 89 71 49 44 60 60 57 62 63 70 204 232 237 236 234 232 232 236 234 228 221 219 219 217 222 237 242 236 239 239 230 224 214 205 207 205 202 207 210 205 201 200 199 200 203 203 203 204 206 213 216 217 219 219 217 217 226 236 240 240 242 246 249 249 252 257 253 247 249 246 249 259 265 266
166 215 239 254 287 279 287 301 317 323 288 177 174 217 35 70 160 144 137 152 150 143 141 136 108 75 53 62 64 53 52 58 56 51 261 250 248 244 239 236 241 244 239 232 225 222 222 226 238 246 241 239 240 239 237 231 216 209 207 204 204 210 210 205 203 201 199 200 200 204 209 210 210 212 216 219 222 223 221 224 232 236 238 240 242 245 241 240 251 250 248 252 246 244 255 260 260
162 208 216 63 4 288 271 255 268 279 269 215 190 227 108 135 182 158 164 179 166 168 161 137 113 96 93 68 59 47 37 41 41 39 30 322 276 262 256 249 247 247 243 241 239 231 225 229 238 247 246 236 235 238 241 240 229 215 210 208 205 208 212 209 207 206 203 203 204 205 209 212 211 212 216 219 222 224 223 223 225 228 235 238 239 242 241 239 245 247 247 251 245 239 249 256 260
248 217 132 98 42 266 266 253 211 233 251 166 108 290 147 165 187 155 177 194 179 179 168 145 145 137 115 79 62 43 32 27 25 30 25 7 326 290 279 268 258 254 250 247 245 239 234 235 238 242 242 233 231 234 235 235 235 225 215 212 208 207 209 210 210 210 208 209 211 209 206 209 212 214 216 216 216 219 222 223 223 222 227 234 234 234 236 240 244 244 244 249 248 245 251 257 260
297 95 133 204 244 210 223 262 251 249 269 176 120 270 270 310 86 152 185 203 186 178 175 177 170 145 108 80 68 43 37 29 19 20 14 5 341 314 301 284 269 257 252 249 248 245 242 240 239 239 237 231 229 230 228 228 232 229 222 217 214 210 208 209 211 212 211 211 213 212 210 211 212 215 218 216 213 214 219 225 229 228 228 233 235 232 232 238 241 238 240 248 254 259 263 264 262
195 154 173 232 289 281 249 283 291 293 298 306 161 200 156 49 55 132 172 192 192 183 178 185 168 135 99 69 58 38 38 30 18 12 3 358 340 324 311 295 286 272 258 251 246 244 244 241 238 238 237 233 230 226 224 225 225 223 221 220 218 216 212 209 210 212 212 212 212 212 213 214 215 216 219 218 215 214 218 223 228 230 230 232 235 234 233 238 240 236 235 239 242 250 259 265 263
194 203 197 196 190 245 245 229 285 302 305 327 309 273 101 76 51 92 145 170 183 184 178 176 161 133 98 71 48 30 30 22 13 7 357 353 342 330 320 307 296 284 275 264 251 245 243 239 234 234 236 233 230 226 222 223 223 221 219 218 218 218 217 214 211 211 212 213 214 213 213 215 216 216 216 217 217 217 220 223 224 227 229 230 232 232 230 233 240 241 241 240 240 245 252 258 261
263 239 218 203 192 218 234 207 196 279 300 333 318 315 83 91 98 101 124 154 168 175 174 166 154 133 100 79 50 29 24 14 6 360 352 348 340 330 322 315 304 295 285 271 258 250 246 242 234 228 228 229 229 226 223 222 223 223 221 217 216 216 217 216 213 213 212 211 214 215 215 215 216 217 216 216 218 219 221 222 223 225 228 229 233 236 234 233 238 244 245 245 246 251 256 258 263